This is the latest recevied weather packets stored in our database for station/object W6UA-13. If no packets are shown the sender has not sent any weather packets the latest 10 day(s).
| Time | Temp. | Humidity | Pressure | Rain* | Wind** | Luminosity | Snow |
|---|---|---|---|---|---|---|---|
| 1788150685 | 58° F | 84% | 760.4 mmHg | 0 in | - | 0 W/m² | - |
| 1788149785 | 58° F | 83% | 760.4 mmHg | 0 in | - | 0 W/m² | - |
| 1788148885 | 59° F | 83% | 760.4 mmHg | 0 in | - | 0 W/m² | - |
| 1788147985 | 59° F | 82% | 760.1 mmHg | 0 in | - | 0 W/m² | - |
| 1788147085 | 59° F | 80% | 760 mmHg | 0 in | - | 0 W/m² | - |
| 1788146185 | 60° F | 79% | 760 mmHg | 0 in | - | 0 W/m² | - |
| 1788145285 | 61° F | 76% | 760 mmHg | 0 in | - | 0 W/m² | - |
| 1788144385 | 62° F | 74% | 760.1 mmHg | 0 in | - | 0 W/m² | - |
| 1788143485 | 63° F | 72% | 760.3 mmHg | 0 in | - | 5 W/m² | - |
| 1788142585 | 65° F | 68% | 760.3 mmHg | 0 in | - | 12 W/m² | - |
| 1788141685 | 68° F | 63% | 760.4 mmHg | 0 in | - | 39 W/m² | - |
| 1788140785 | 70° F | 63% | 760.4 mmHg | 0 in | - | 63 W/m² | - |
| 1788139885 | 71° F | 62% | 760.5 mmHg | 0 in | - | 113 W/m² | - |
| 1788138985 | 71° F | 61% | 760.5 mmHg | 0 in | - | 174 W/m² | - |
| 1788138085 | 72° F | 61% | 760.6 mmHg | 0 in | - | 225 W/m² | - |
| 1788137185 | 72° F | 59% | 760.6 mmHg | 0 in | - | 276 W/m² | - |
| 1788136285 | 73° F | 58% | 760.4 mmHg | 0 in | - | 323 W/m² | - |
| 1788135385 | 73° F | 58% | 760.5 mmHg | 0 in | - | 376 W/m² | - |
| 1788134485 | 73° F | 57% | 760.6 mmHg | 0 in | - | 422 W/m² | - |
| 1788133585 | 73° F | 57% | 760.4 mmHg | 0 in | - | 466 W/m² | - |
| 1788132685 | 74° F | 57% | 760.4 mmHg | 0 in | - | 513 W/m² | - |
| 1788131785 | 75° F | 54% | 760.4 mmHg | 0 in | - | 557 W/m² | - |
| 1788130885 | 75° F | 56% | 760.5 mmHg | 0 in | - | 559 W/m² | - |
| 1788129986 | 74° F | 56% | 760.6 mmHg | 0 in | - | 633 W/m² | - |
| 1788129086 | 73° F | 57% | 760.7 mmHg | 0 in | - | 668 W/m² | - |
* Rain latest hour (hover to see other rain measurements)
** Current wind speed in m/s (hover to see current wind gust speed)